Flag for Norway Weather past 2 weeks in Lørenskog, Norway

Now
46 °F

Cool.


Feels Like: 43 °F
Forecast: 40 / 52 °F
Wind: 5 mph from South

Location: Oslo-Blindern

Current Time: Apr 25, 2015 at 9:51:40 AM

Latest Report: Apr 25, 2015 at 9:00 AM


Visibility: N/A

Pressure: 29.50 "Hg

Humidity: 83%

Dew point: 41 °F

Location of LørenskogLocation

Historic Weather in Lørenskog — Graph

°F

Lørenskog temperature yesterday

Maximum temperature yesterday: 51 °F (at 1:00 PM)
Minimum temperature yesterday: 36 °F (at 6:00 AM)
Average temperature yesterday: 44 °F

Past Weeks' High & Low Weather Summary

 TemperatureHumidityPressure
High72 °F (Apr 20, 3:00 PM)98% (Apr 11, 6:00 AM)30.35 "Hg (Apr 11, 6:00 AM)
Low32 °F (Apr 14, 4:00 AM)19% (Apr 20, 8:00 PM)29.44 "Hg (Apr 15, 4:00 PM)
Average47 °F54%29.93 "Hg
* Reported Apr 10 8:00 AM — Apr 25 8:00 AM, Lørenskog, Weather by CustomWeather, © 2015

Note: Actual official high and low records may vary slightly from our data, if they occured in-between our weather recording intervals... More about our weather records

Advertising

Lørenskog weather history for previous 24 hours

 ConditionsComfort  
Time TempWeatherWind HumidityBarometerVisibility
8:00 AM
Sat, Apr 25
44 °FLow clouds.3 mph86%29.50 "Hg16 mi
7:00 AM44 °FQuite cool.3 mph86%29.50 "HgN/A
6:00 AM43 °FQuite cool.2 mph85%29.53 "HgN/A
5:00 AM43 °FOvercast.5 mph86%29.55 "Hg19 mi
4:00 AM44 °FQuite cool.5 mph87%29.56 "HgN/A
3:00 AM44 °FQuite cool.3 mph89%29.57 "HgN/A
1:00 AM43 °FQuite cool.1 mph86%29.59 "HgN/A
12:00 AM43 °FQuite cool.1 mph84%29.59 "HgN/A
10:00 PM
Fri, Apr 24
44 °FQuite cool.1 mph79%29.61 "HgN/A
9:00 PM45 °FCool.2 mph70%29.61 "HgN/A
8:00 PM46 °FOvercast.1 mph68%29.62 "Hg40 mi
7:00 PM46 °FCool.1 mph72%29.63 "HgN/A
6:00 PM45 °FCool.No wind71%29.65 "HgN/A
5:00 PM45 °FLight rain. Overcast.1 mph77%29.66 "Hg6 mi
4:00 PM46 °FCool.5 mph62%29.66 "HgN/A
3:00 PM49 °FCool.3 mph46%29.66 "HgN/A
2:00 PM50 °FOvercast.5 mph38%29.66 "Hg43 mi
1:00 PM51 °FCool.1 mph32%29.65 "HgN/A
12:00 PM51 °FCool.3 mph32%29.66 "HgN/A
11:00 AM49 °FPartly sunny.5 mph36%29.66 "Hg43 mi
10:00 AM48 °FCool.3 mph41%29.66 "HgN/A
9:00 AM45 °FQuite cool.2 mph57%29.65 "HgN/A
Weather by CustomWeather, © 2015

See weather overviewHow to use our weather pages